This is the latest recevied weather packets stored in our database for station/object WX1NWA. If no packets are shown the sender has not sent any weather packets the latest 10 day(s).
| Time | Temp. | Humidity | Pressure | Rain* | Wind** | Luminosity | Snow |
|---|---|---|---|---|---|---|---|
| 1777944985 | 18.33° C | 72% | 1010.1 hPa | 0 mm | - | 0 W/m² | - |
| 1777944682 | 18.33° C | 71% | 1010.2 hPa | 0 mm | - | 0 W/m² | - |
| 1777944380 | 18.33° C | 71% | 1010.2 hPa | 0 mm | - | 0 W/m² | - |
| 1777944072 | 18.33° C | 71% | 1010 hPa | 0 mm | - | 0 W/m² | - |
| 1777943767 | 18.33° C | 71% | 1010 hPa | 0 mm | - | 0 W/m² | - |
| 1777943465 | 18.33° C | 72% | 1010.2 hPa | 0 mm | - | 0 W/m² | - |
| 1777943165 | 18.33° C | 71% | 1010.1 hPa | 0 mm | - | 0 W/m² | - |
| 1777942861 | 18.33° C | 71% | 1010.3 hPa | 0 mm | - | 1 W/m² | - |
| 1777942557 | 18.33° C | 70% | 1010.1 hPa | 0 mm | - | 3 W/m² | - |
| 1777942255 | 18.33° C | 71% | 1009.9 hPa | 0 mm | - | 3 W/m² | - |
| 1777941952 | 18.33° C | 71% | 1010 hPa | 0 mm | - | 7 W/m² | - |
| 1777941649 | 18.89° C | 70% | 1009.9 hPa | 0 mm | - | 10 W/m² | - |
| 1777941346 | 18.89° C | 70% | 1009.9 hPa | 0 mm | - | 12 W/m² | - |
| 1777941044 | 18.89° C | 70% | 1009.9 hPa | 0 mm | - | 14 W/m² | - |
| 1777940743 | 18.89° C | 69% | 1010.1 hPa | 0 mm | - | 16 W/m² | - |
| 1777940437 | 18.89° C | 69% | 1010 hPa | 0 mm | - | 21 W/m² | - |
| 1777940134 | 19.44° C | 68% | 1009.8 hPa | 0 mm | - | 25 W/m² | - |
| 1777939831 | 19.44° C | 68% | 1010 hPa | 0 mm | - | 30 W/m² | - |
| 1777939529 | 19.44° C | 67% | 1010.3 hPa | 0 mm | - | 35 W/m² | - |
| 1777939226 | 19.44° C | 67% | 1010.1 hPa | 0 mm | - | 36 W/m² | - |
| 1777938922 | 20° C | 67% | 1010.2 hPa | 0 mm | - | 35 W/m² | - |
| 1777938619 | 20° C | 65% | 1009.8 hPa | 0 mm | - | 42 W/m² | - |
| 1777938316 | 20° C | 64% | 1010 hPa | 0 mm | - | 54 W/m² | - |
| 1777938013 | 20° C | 64% | 1010.2 hPa | 0 mm | - | 55 W/m² | - |
| 1777937708 | 20° C | 65% | 1010.1 hPa | 0 mm | - | 48 W/m² | - |
* Rain latest hour (hover to see other rain measurements)
** Current wind speed in m/s (hover to see current wind gust speed)